EW2244 Weather Reports


Display with metric or nautical units.
time (UTC)temp
F
wind
direction
speed
MPH
gust
MPH
rain 1hr
in
rain 24hr
in
rain mn
in
humidity
%
barometer
mb
20260510041120 60 30 1.0 4.0 0.00 0.00 0.00 72 1013.9
20260510040128 60 53 1.0 6.0 0.00 0.00 0.00 70 1013.9
20260510035120 59 35 1.0 5.0 0.00 0.00 0.00 71 1013.9
20260510034127 59 266 1.0 5.0 0.00 0.00 0.00 72 1013.9
20260510033116 59 330 3.0 10.0 0.00 0.00 0.00 73 1014.1
20260510032128 59 45 2.0 8.0 0.00 0.00 0.00 74 1014.1
20260510031136 59 26 4.0 9.0 0.00 0.00 0.00 73 1014.2
20260510030123 59 355 1.0 6.0 0.00 0.00 0.00 74 1014.5
20260510025131 60 350 1.0 4.0 0.00 0.00 0.00 72 1014.4
20260510024123 59 33 1.0 4.0 0.00 0.00 0.00 71 1014.4
20260510023132 59 234 0.0 1.0 0.00 0.00 0.00 74 1014.5
20260510022120 59 234 0.0 3.0 0.00 0.00 0.00 75 1014.6
20260510021127 59 233 1.0 4.0 0.00 0.00 0.00 75 1014.6
20260510020115 59 233 0.0 3.0 0.00 0.00 0.00 73 1014.7
20260510015123 59 230 2.0 5.0 0.00 0.00 0.00 73 1014.7
20260510014132 60 82 2.0 4.0 0.00 0.00 0.00 70 1014.9
20260510013141 60 19 1.0 3.0 0.00 0.00 0.00 67 1014.7
20260510012129 60 73 0.0 2.0 0.00 0.00 0.00 67 1014.8
20260510011115 60 49 0.0 9.0 0.00 0.00 0.00 66 1014.9
20260510010125 60 25 2.0 8.0 0.00 0.00 0.00 66 1014.9
20260510005132 60 336 1.0 9.0 0.00 0.00 0.00 66 1014.9
20260510004122 61 132 1.0 4.0 0.00 0.00 0.00 66 1014.8
20260510003150 61 299 1.0 3.0 0.00 0.00 0.00 66 1015.1
20260510002115 61 274 0.0 4.0 0.00 0.00 0.00 66 1015.4
20260510001143 61 135 0.0 2.0 0.00 0.00 0.00 65 1015.5
20260510000130 61 351 0.0 4.0 0.00 0.00 0.00 65 1015.5
20260509235122 61 159 1.0 3.0 0.00 0.00 0.00 66 1015.6
20260509234131 61 130 1.0 6.0 0.00 0.00 0.00 66 1015.6
20260509233119 61 136 1.0 6.0 0.00 0.00 0.00 66 1015.5
20260509232132 61 56 1.0 5.0 0.00 0.00 0.00 66 1015.6
20260509231120 61 62 1.0 4.0 0.00 0.00 0.00 64 1015.6
20260509230148 61 71 1.0 4.0 0.00 0.00 0.00 65 1015.6
20260509225116 62 164 1.0 6.0 0.00 0.00 0.00 65 1015.5
20260509224128 61 44 0.0 3.0 0.00 0.00 0.00 65 1015.6
20260509223117 60 68 1.0 6.0 0.00 0.00 0.00 68 1015.7
20260509222122 58 101 0.0 3.0 0.00 0.00 0.00 74 1015.8
20260509221130 58 227 1.0 3.0 0.00 0.00 0.00 77 1015.8
20260509220127 59 232 1.0 2.0 0.00 0.00 0.00 75 1015.8
20260509215114 60 231 1.0 3.0 0.00 0.00 0.00 74 1015.8
20260509214121 60 142 0.0 1.0 0.00 0.00 0.00 71 1015.6
20260509213127 61 142 1.0 3.0 0.00 0.00 0.00 71 1015.8
20260509212115 61 140 0.0 5.0 0.00 0.00 0.00 69 1015.7
20260509211153 61 124 1.0 2.0 0.00 0.00 0.00 70 1015.6
20260509210115 60 206 0.0 5.0 0.00 0.00 0.00 73 1015.6
20260509205125 59 103 0.0 2.0 0.00 0.00 0.00 77 1015.6
20260509204129 59 103 1.0 2.0 0.00 0.00 0.00 77 1015.6
20260509203118 60 103 0.0 2.0 0.00 0.00 0.00 76 1015.6
20260509202115 60 103 0.0 2.0 0.00 0.00 0.00 75 1015.6
20260509201123 61 103 0.0 3.0 0.00 0.00 0.00 73 1015.6
20260509200124 64 102 1.0 3.0 0.00 0.00 0.00 68 1015.5
20260509195134 64 87 1.0 3.0 0.00 0.00 0.00 68 1015.4
20260509194133 64 178 1.0 3.0 0.00 0.00 0.00 68 1015.2
20260509193132 63 254 1.0 3.0 0.00 0.00 0.00 70 1015.0
20260509192115 62 255 0.0 2.0 0.00 0.00 0.00 71 1014.9
20260509191124 61 255 0.0 2.0 0.00 0.00 0.00 76 1014.8
20260509190132 62 255 0.0 1.0 0.00 0.00 0.00 77 1014.9
20260509185116 63 255 0.0 2.0 0.00 0.00 0.00 75 1014.9
20260509184122 64 255 0.0 1.0 0.00 0.00 0.00 71 1015.0
20260509183133 65 255 0.0 1.0 0.00 0.00 0.00 71 1015.0
20260509182118 65 255 0.0 1.0 0.00 0.00 0.00 69 1014.9
20260509181126 66 255 1.0 2.0 0.00 0.00 0.00 69 1015.0
20260509180116 67 255 0.0 2.0 0.00 0.00 0.00 67 1014.9
20260509175120 68 255 0.0 1.0 0.00 0.00 0.00 60 1014.9
20260509174123 69 255 0.0 2.0 0.00 0.00 0.00 56 1014.8
20260509173150 69 255 0.0 1.0 0.00 0.00 0.00 56 1014.7
20260509172117 70 255 0.0 2.0 0.00 0.00 0.00 54 1014.7
20260509171122 70 255 0.0 0.0 0.00 0.00 0.00 52 1014.7
20260509170130 71 255 0.0 1.0 0.00 0.00 0.00 53 1014.7
20260509165117 71 255 0.0 1.0 0.00 0.00 0.00 50 1014.8
20260509164122 72 255 1.0 3.0 0.00 0.00 0.00 47 1014.8
20260509163135 72 255 0.0 3.0 0.00 0.00 0.00 46 1014.9
20260509162121 73 254 2.0 6.0 0.00 0.00 0.00 44 1015.0
20260509161127 73 155 1.0 2.0 0.00 0.00 0.00 42 1015.1
20260509160118 74 150 2.0 4.0 0.00 0.00 0.00 41 1015.1
20260509155145 75 166 1.0 2.0 0.00 0.00 0.00 41 1015.2
20260509154149 75 169 0.0 4.0 0.00 0.00 0.00 40 1015.3
20260509153134 75 253 1.0 3.0 0.00 0.00 0.00 41 1015.4
20260509152123 75 253 1.0 7.0 0.00 0.00 0.00 42 1015.5
20260509151155 75 173 1.0 3.0 0.00 0.00 0.00 42 1015.4
20260509150122 74 103 0.0 4.0 0.00 0.00 0.00 43 1015.4
20260509145131 75 206 0.0 3.0 0.00 0.00 0.00 41 1015.4
20260509144118 74 128 2.0 5.0 0.00 0.00 0.00 44 1015.4
20260509143149 74 94 1.0 7.0 0.00 0.00 0.00 45 1015.5
20260509142116 74 288 1.0 4.0 0.00 0.00 0.00 45 1015.5
20260509141120 74 113 2.0 4.0 0.00 0.00 0.00 43 1015.6
20260509140128 74 163 1.0 8.0 0.00 0.00 0.00 48 1015.8
20260509135119 73 92 3.0 6.0 0.00 0.00 0.00 48 1015.8
20260509134127 73 74 2.0 7.0 0.00 0.00 0.00 45 1016.0
20260509133132 73 197 3.0 10.0 0.00 0.00 0.00 46 1016.1
20260509132120 73 74 3.0 7.0 0.00 0.00 0.00 45 1016.3
20260509131132 73 92 1.0 7.0 0.00 0.00 0.00 49 1016.4
20260509130119 74 53 1.0 5.0 0.00 0.00 0.00 46 1016.4
20260509125127 74 165 2.0 8.0 0.00 0.00 0.00 49 1016.4
20260509124115 74 173 2.0 6.0 0.00 0.00 0.00 47 1016.4
20260509123124 74 82 3.0 8.0 0.00 0.00 0.00 49 1016.5
20260509122129 74 112 1.0 6.0 0.00 0.00 0.00 46 1016.5
20260509121116 73 48 2.0 7.0 0.00 0.00 0.00 45 1016.5
20260509120125 74 109 1.0 7.0 0.00 0.00 0.00 46 1016.6
20260509115117 73 82 2.0 5.0 0.00 0.00 0.00 49 1016.7
20260509114125 73 155 2.0 4.0 0.00 0.00 0.00 49 1016.7
20260509113133 73 192 0.0 4.0 0.00 0.00 0.00 44 1016.8
20260509112142 72 69 2.0 4.0 0.00 0.00 0.00 47 1016.8
20260509111131 72 89 1.0 5.0 0.00 0.00 0.00 48 1017.0
20260509110120 72 5 0.0 6.0 0.00 0.00 0.00 52 1017.1
20260509105125 72 52 2.0 5.0 0.00 0.00 0.00 54 1017.2
20260509104153 72 28 3.0 7.0 0.00 0.00 0.00 51 1017.3
20260509103123 72 78 2.0 5.0 0.00 0.00 0.00 56 1017.6
20260509102131 72 61 1.0 8.0 0.00 0.00 0.00 55 1017.6
20260509101118 72 139 1.0 7.0 0.00 0.00 0.00 53 1017.7
20260509100146 71 57 2.0 6.0 0.00 0.00 0.00 58 1017.8
20260509095117 71 72 2.0 4.0 0.00 0.00 0.00 53 1017.7
20260509094124 70 192 1.0 6.0 0.00 0.00 0.00 55 1017.8
20260509093128 70 171 1.0 4.0 0.00 0.00 0.00 56 1017.8
20260509092117 69 192 0.0 6.0 0.00 0.00 0.00 56 1017.8
20260509091128 69 32 1.0 5.0 0.00 0.00 0.00 59 1017.9
20260509090155 67 16 2.0 3.0 0.00 0.00 0.00 61 1017.9
20260509085120 67 15 3.0 6.0 0.00 0.00 0.00 59 1018.0
20260509084130 67 21 2.0 4.0 0.00 0.00 0.00 59 1018.1
20260509083122 66 22 0.0 3.0 0.00 0.00 0.00 61 1018.1
20260509082130 67 23 1.0 6.0 0.00 0.00 0.00 58 1018.0
20260509081118 67 19 3.0 5.0 0.00 0.00 0.00 59 1018.0
20260509080128 67 54 1.0 6.0 0.00 0.00 0.00 59 1018.1
20260509075132 67 51 1.0 4.0 0.00 0.00 0.00 60 1018.2
20260509074121 66 11 1.0 4.0 0.00 0.00 0.00 64 1018.2
20260509073127 65 75 2.0 4.0 0.00 0.00 0.00 66 1018.2
20260509072116 64 34 1.0 5.0 0.00 0.00 0.00 64 1018.2
20260509071121 63 350 1.0 5.0 0.00 0.00 0.00 69 1018.2
20260509070129 62 34 2.0 4.0 0.00 0.00 0.00 69 1018.1
20260509065137 62 24 2.0 4.0 0.00 0.00 0.00 67 1018.1
20260509064123 62 33 1.0 4.0 0.00 0.00 0.00 70 1018.2
20260509063135 61 48 1.0 2.0 0.00 0.00 0.00 71 1018.2
20260509062120 60 46 1.0 3.0 0.00 0.00 0.00 73 1018.1
20260509061126 59 40 2.0 4.0 0.00 0.00 0.00 72 1018.1
20260509060153 58 24 0.0 2.0 0.00 0.00 0.00 76 1018.1
20260509055125 57 24 0.0 5.0 0.00 0.00 0.00 75 1018.0
20260509054132 57 360 1.0 5.0 0.00 0.00 0.00 76 1017.9
20260509053120 56 33 0.0 3.0 0.00 0.00 0.00 78 1017.9
20260509052148 54 308 1.0 2.0 0.00 0.00 0.00 81 1018.0
20260509051118 53 308 0.0 3.0 0.00 0.00 0.00 83 1017.9
20260509050126 53 308 0.0 2.0 0.00 0.00 0.00 84 1017.8
20260509045135 52 308 1.0 3.0 0.00 0.00 0.00 85 1017.8
20260509044123 52 309 0.0 1.0 0.00 0.00 0.00 85 1017.7
20260509043156 52 309 1.0 3.0 0.00 0.00 0.00 86 1017.6
20260509042121 53 311 1.0 3.0 0.00 0.00 0.00 84 1017.5